Weather History for KSLK - May, 2013

Change the Weather History Date:

Sunday, May 26, 2013

  Actual Average Record
Temperature  
Mean Temperature 42 °F 54 °F  
Max Temperature 53 °F 67 °F 85 °F (1978)
Min Temperature 31 °F 41 °F 29 °F (1956)
Degree Days  
Heating Degree Days 22 11  
Month to date heating degree days 409  
Since 1 July heating degree days 9180  
Cooling Degree Days 0 0  
Month to date cooling degree days 1 0  
Year to date cooling degree days 1 0  
Moisture  
Dew Point 37 °F    
Average Humidity 73    
Maximum Humidity 100    
Minimum Humidity 46    
Precipitation  
Precipitation 0.33 in 0.14 in 0.75 in (2011)
Month to date precipitation 5.42 2.83  
Year to date precipitation 10.68 11.74  
Sea Level Pressure  
Sea Level Pressure 29.98 in    
Wind  
Wind Speed 6 mph (NNW)    
Max Wind Speed 16 mph    
Max Gust Speed 30 mph    
Visibility 6 miles    
Events Rain , Snow    
T = Trace of Precipitation, MM = Missing Value Source: NWS Daily Summary

Daily Weather History Graph

Daily Weather History Graph

Search for Another Location

Airport or City:

Trip Planner

Search our weather history database for the weather conditions in past years. The results will help you decide how hot, cold, wet, or windy it might be!

Date:

Astronomy

May. 26, 2013 Rise Set
Actual Time 5:19 AM EDT 8:29 PM EDT
Civil Twilight 4:44 AM EDT 9:04 PM EDT
Nautical Twilight 3:59 AM EDT 9:49 PM EDT
Astronomical Twilight 3:04 AM EDT 10:44 PM EDT
Moon 10:12 PM EDT (5/26) 6:46 AM EDT (5/26)
Length of Visible Light 16h 20m
Length of Day
15h 09m
Waning Gibbous, 97% of the Moon is Illuminated
May 26
Waning Gibbous
May 31
Last Quarter
Jun 8
New
Jun 16
First Quarter
Jun 23
Full

Hourly Weather History & Observations

Time (EDT) Temp. Windchill Dew Point Humidity Pressure Visibility Wind Dir Wind Speed Gust Speed Precip Events Conditions
12:51 AM 37.9 °F 31.5 °F 36.0 °F 93% 29.98 in 6.0 mi North 9.2 mph 16.1 mph 0.04 in Rain Rain
12:55 AM 37.4 °F 29.8 °F 35.6 °F 93% 29.94 in 6.0 mi NNW 11.5 mph 17.3 mph 0.01 in Rain Light Rain
1:09 AM 37.4 °F 31.4 °F 35.6 °F 93% 29.94 in 7.0 mi North 8.1 mph 18.4 mph 0.02 in Rain Light Rain
1:51 AM 37.9 °F 33.5 °F 36.0 °F 93% 29.96 in 7.0 mi Variable 5.8 mph - 0.04 in Rain Light Rain
2:34 AM 37.4 °F 32.8 °F 35.6 °F 93% 29.91 in 4.0 mi Variable 5.8 mph - 0.02 in Rain Rain
2:51 AM 37.9 °F 33.5 °F 36.0 °F 93% 29.94 in 6.0 mi NNW 5.8 mph - 0.04 in Rain Light Rain
3:12 AM 37.4 °F 32.8 °F 35.6 °F 93% 29.90 in 5.0 mi Variable 5.8 mph 17.3 mph 0.01 in Rain Light Rain
3:51 AM 37.0 °F 29.3 °F 35.1 °F 93% 29.94 in 5.0 mi NNW 11.5 mph 16.1 mph 0.03 in   Overcast
4:15 AM 37.4 °F 31.4 °F 35.6 °F 93% 29.89 in 5.0 mi NNW 8.1 mph - 0.01 in   Overcast
4:51 AM 37.9 °F 31.5 °F 36.0 °F 93% 29.93 in 5.0 mi NNW 9.2 mph - 0.02 in Rain Light Rain
5:51 AM 37.9 °F 31.5 °F 36.0 °F 93% 29.93 in 3.0 mi North 9.2 mph - 0.02 in Snow Light Snow
5:59 AM 37.4 °F 30.8 °F 37.4 °F 100% 29.89 in 2.5 mi North 9.2 mph - 0.00 in Snow Light Snow
6:07 AM 39.2 °F 33.6 °F 35.6 °F 87% 29.89 in 4.0 mi North 8.1 mph 20.7 mph 0.00 in Rain Light Rain
6:51 AM 39.0 °F 33.4 °F 37.0 °F 93% 29.94 in 4.0 mi North 8.1 mph - 0.02 in Rain Light Rain
7:51 AM 39.0 °F 34.0 °F 37.0 °F 93% 29.96 in 2.5 mi Variable 6.9 mph - 0.03 in Rain Light Rain
8:00 AM 39.2 °F 34.2 °F 37.4 °F 93% 29.92 in 3.0 mi Variable 6.9 mph - 0.00 in   Overcast
8:11 AM 39.2 °F 35.9 °F 37.4 °F 93% 29.92 in 4.0 mi Variable 4.6 mph 16.1 mph 0.01 in   Overcast
8:51 AM 39.0 °F 33.4 °F 37.0 °F 93% 29.97 in 4.0 mi NNW 8.1 mph 18.4 mph 0.02 in Rain Light Rain
9:51 AM 39.9 °F 34.5 °F 37.0 °F 89% 29.98 in 5.0 mi North 8.1 mph 19.6 mph 0.02 in   Overcast
10:51 AM 41.0 °F 33.9 °F 37.9 °F 89% 29.99 in 4.0 mi NNW 12.7 mph 21.9 mph 0.02 in Rain Light Rain
11:37 AM 41.0 °F 34.7 °F 39.2 °F 93% 29.96 in 4.0 mi NW 10.4 mph 25.3 mph 0.02 in Rain Light Rain
11:44 AM 42.8 °F 36.6 °F 39.2 °F 87% 29.96 in 4.0 mi NNW 11.5 mph 20.7 mph 0.02 in Rain Light Rain
11:51 AM 41.0 °F 34.3 °F 37.9 °F 89% 30.00 in 5.0 mi NNW 11.5 mph 23.0 mph 0.03 in Rain Light Rain
12:19 PM 42.8 °F 36.6 °F 37.4 °F 81% 29.98 in 5.0 mi NNW 11.5 mph 19.6 mph 0.02 in Rain Light Rain
12:51 PM 43.0 °F 38.8 °F 39.0 °F 86% 30.02 in 6.0 mi NW 6.9 mph 27.6 mph 0.03 in Rain Light Rain
1:42 PM 42.8 °F 36.2 °F 39.2 °F 87% 29.99 in 4.0 mi NNW 12.7 mph 25.3 mph 0.02 in Rain Rain
1:51 PM 43.0 °F 36.4 °F 39.0 °F 86% 30.03 in 6.0 mi NW 12.7 mph 25.3 mph 0.02 in Rain Light Rain
2:05 PM 44.6 °F 39.2 °F 39.2 °F 81% 30.00 in 10.0 mi NNW 10.4 mph 23.0 mph 0.00 in   Overcast
2:51 PM 45.0 °F 39.7 °F 37.9 °F 76% 30.05 in 10.0 mi NW 10.4 mph 20.7 mph 0.00 in   Overcast
3:51 PM 46.9 °F - 37.9 °F 71% 30.06 in 10.0 mi NNW 10.4 mph 18.4 mph N/A   Overcast
4:51 PM 48.9 °F - 39.0 °F 69% 30.07 in 10.0 mi Variable 5.8 mph - N/A   Scattered Clouds
5:51 PM 52.0 °F - 36.0 °F 54% 30.06 in 10.0 mi Variable 3.5 mph - N/A   Mostly Cloudy
6:51 PM 53.1 °F - 34.0 °F 48% 30.06 in 10.0 mi Variable 4.6 mph - N/A   Mostly Cloudy
7:51 PM 50.0 °F - 34.0 °F 54% 30.06 in - Calm Calm - N/A   Clear
8:51 PM 45.0 °F - 36.0 °F 71% 30.07 in - Calm Calm - N/A   Clear
9:51 PM 37.0 °F - 35.1 °F 93% 30.09 in 10.0 mi Calm Calm - N/A   Clear
10:51 PM 34.0 °F - 33.1 °F 96% 30.10 in 10.0 mi Calm Calm - N/A   Mostly Cloudy
11:51 PM 34.0 °F - 33.1 °F 96% 30.10 in 10.0 mi Calm Calm - N/A   Mostly Cloudy